Terug naar catalogus

STARLINK-30386

ActiefCommunicatieVLEO
NORAD 57816·PAYLOAD·🇺🇸 United States

Gelanceerd Sep 9, 2023 vanaf Cape Canaveral Space Force Station

Loading…

Volgende Passages (komende 24 uur)

TLE

VersSource: CelesTrak SupGP

Epoch: Sep 14, 2026, 21:31 UTC

1 57816C 23138J   26257.89701389  .00038836  00000+0  14068-2 0  2576
2 57816  43.0009 245.8893 0001584 261.3682  48.1712 15.27554415    13

Volg STARLINK-30386 in realtime met AllMySat

Download on the App Store